[[{"header":{"parameterUnit":"m.s-1","parameterCategory":1,"la1":30.2991,"la2":30.254,"lo1":-89.0895,"lo2":-89.0444,"dy":0.0017,"dx":0.0017,"nx":28,"ny":28,"refTime":"2025-03-24T09:00:00:Z","depth":0,"parameterNumber":2,"parameterNumberName":"U-component_of_WINDS"},"data":[0,0,0,0,0,0,0,0,0,0,0,0,0,0,0,0,0,0,0,0,0,0,0,0,0,0,0,0,0,0,0,0,0,0,0,0,0,0,0,0,0,0,0,0,0,0,0,0,0,0,0,0,0,0,0,0,0,0,-1.2668,-1.2668,0,-1.2647,-1.2647,-1.2647,-1.2612,-1.2611,-1.2611,-1.261,-1.2589,-1.2589,-1.2589,0,0,0,0,0,0,0,0,0,0,0,0,0,-1.2679,-1.2679,-1.2668,-1.2668,-1.2668,-1.2647,-1.2647,-1.2647,-1.2612,-1.2611,-1.2611,-1.261,-1.2589,-1.2589,-1.2589,0,0,0,0,0,0,0,0,0,0,0,0,0,-1.2668,-1.2679,-1.2668,-1.2648,-1.2646,-1.2647,-1.2647,-1.2647,-1.2612,-1.2611,-1.261,-1.261,-1.2589,-1.2589,-1.2589,-1.2609,0,0,-1.2589,-1.259,0,0,0,0,0,0,0,0,-1.2668,-1.2667,-1.2651,-1.2649,-1.2647,-1.2631,-1.2643,-1.2634,-1.2613,-1.2625,-1.261,-1.2609,-1.2604,-1.2603,-1.2601,-1.2608,-1.2607,-1.2589,-1.259,-1.259,-1.259,0,0,0,0,0,0,0,-1.2669,-1.2668,-1.266,-1.2651,-1.2649,-1.264,-1.2637,-1.2641,-1.262,-1.2624,-1.2621,-1.2619,-1.2603,-1.2601,-1.26,-1.2607,-1.2589,-1.259,-1.259,-1.259,-1.2628,-1.2629,0,0,0,0,0,0,-1.2673,-1.2669,-1.2661,-1.2659,-1.2656,-1.2641,-1.2638,-1.2637,-1.262,-1.2617,-1.262,-1.2618,-1.2601,-1.26,-1.2599,-1.262,-1.259,-1.259,-1.259,-1.2627,-1.2628,-1.2629,0,0,0,0,0,0,-1.2673,-1.2672,-1.2661,-1.2663,-1.2661,-1.2642,-1.2641,-1.2637,-1.2636,-1.2617,-1.2613,-1.2622,-1.2601,-1.2599,-1.2607,-1.2619,-1.259,-1.259,-1.2626,-1.2627,-1.2629,-1.2663,0,0,0,0,0,0,-1.2674,-1.2673,-1.268,-1.2664,-1.2661,-1.2669,-1.2642,-1.2638,-1.2636,-1.2632,-1.2618,-1.2615,-1.26,-1.2607,-1.2607,-1.2619,-1.259,-1.2624,-1.2626,-1.2628,-1.2661,-1.2666,-1.267,0,0,0,0,0,-1.2674,-1.2691,-1.2681,-1.268,-1.267,-1.267,-1.2668,-1.2651,-1.2637,-1.2644,-1.2632,-1.2615,-1.2618,-1.2608,-1.2607,-1.262,-1.2624,-1.2626,-1.2628,-1.2659,-1.2665,-1.267,0,0,0,0,0,0,-1.2709,-1.2688,-1.2677,-1.2689,-1.2681,-1.2664,-1.2672,-1.2658,-1.2654,-1.2651,-1.2629,-1.2626,-1.2636,-1.2629,-1.2618,-1.2638,-1.2618,-1.262,-1.2642,-1.2647,-1.2652,-1.2653,-1.259,0,0,0,0,0,-1.2718,-1.272,-1.2702,-1.2714,-1.2711,-1.2692,-1.2692,-1.2678,-1.267,-1.2667,-1.2655,-1.2648,-1.2647,-1.2647,-1.2645,-1.266,-1.2656,-1.2668,-1.2673,-1.2677,-1.2679,-1.2685,-1.269,-1.2636,-1.2636,-1.2636,0,0,-1.2737,-1.2726,-1.2728,-1.2721,-1.2713,-1.2716,-1.269,-1.2693,-1.2695,-1.2667,-1.2673,-1.2665,-1.2655,-1.2666,-1.267,-1.266,-1.2693,-1.268,-1.2683,-1.2683,-1.2688,-1.2693,-1.2698,-1.2638,-1.2638,-1.2637,0,0,-1.2773,-1.2765,-1.2774,-1.2767,-1.2756,-1.2743,-1.2746,-1.2731,-1.2724,-1.2729,-1.2709,-1.271,-1.2709,-1.2703,-1.2699,-1.2732,-1.2716,-1.2732,-1.2756,-1.2762,-1.2767,-1.277,-1.2781,-1.2786,-1.2734,-1.2735,-1.2735,0,-1.2797,-1.28,-1.278,-1.2785,-1.2782,-1.2757,-1.2766,-1.276,-1.275,-1.2748,-1.2737,-1.2735,-1.2727,-1.2735,-1.2743,-1.2742,-1.2743,-1.2734,-1.2768,-1.2771,-1.2774,-1.2785,-1.2789,-1.2736,-1.2736,-1.2736,-1.2736,0,-1.283,-1.2832,-1.2841,-1.2831,-1.2829,-1.2836,-1.2817,-1.2818,-1.2805,-1.2794,-1.2799,-1.2788,-1.2784,-1.2785,-1.2773,-1.2792,-1.2786,-1.2772,-1.2752,-1.2782,-1.2791,-1.2795,-1.2739,-1.2739,-1.2738,-1.2738,0,0,-1.2887,-1.2866,-1.2869,-1.2864,-1.2851,-1.2852,-1.2857,-1.2852,-1.2853,-1.2846,-1.285,-1.285,-1.2836,-1.2833,-1.2819,-1.2825,-1.2851,-1.281,-1.2809,-1.2817,-1.2871,-1.2882,-1.2887,-1.2841,-1.2841,-1.2842,-1.2872,0,-1.2919,-1.2927,-1.291,-1.2922,-1.2923,-1.29,-1.2904,-1.2897,-1.2886,-1.2886,-1.2874,-1.2874,-1.2856,-1.2854,-1.2859,-1.2847,-1.2861,-1.2845,-1.2844,-1.2844,-1.2846,-1.2891,-1.2903,-1.2931,-1.2875,-1.2876,-1.2876,0,-1.2958,-1.2953,-1.2965,-1.295,-1.295,-1.2954,-1.2948,-1.2948,-1.2939,-1.2931,-1.2926,-1.2911,-1.2915,-1.2896,-1.2901,-1.289,-1.2889,-1.2883,-1.2884,-1.2882,-1.2862,-1.2891,-1.294,-1.2944,-1.2882,-1.2882,-1.2881,0,-1.2997,-1.2994,-1.3,-1.2997,-1.298,-1.2983,-1.2976,-1.2966,-1.2964,-1.2959,-1.2957,-1.2953,-1.295,-1.2947,-1.293,-1.2918,-1.2937,-1.2917,-1.293,-1.2931,-1.2935,-1.2935,-1.2984,-1.2935,-1.2935,-1.2935,-1.2935,0,-1.3034,-1.3043,-1.3018,-1.3022,-1.303,-1.301,-1.3019,-1.301,-1.3001,-1.3003,-1.2982,-1.2984,-1.2962,-1.2962,-1.2949,-1.2955,-1.2954,-1.2948,-1.2944,-1.2949,-1.295,-1.2948,-1.2945,-1.2936,-1.2936,-1.2936,-1.2936,0,-1.308,-1.3063,-1.3069,-1.3052,-1.3048,-1.3055,-1.3041,-1.3044,-1.3032,-1.3035,-1.3034,-1.3016,-1.3014,-1.2997,-1.2992,-1.2983,-1.2994,-1.2987,-1.2997,-1.2995,-1.3009,-1.3007,-1.3058,-1.3063,-1.3012,-1.3012,-1.3012,0,-1.3104,-1.311,-1.3094,-1.3093,-1.3087,-1.3087,-1.3085,-1.3065,-1.3064,-1.3053,-1.3058,-1.3054,-1.3051,-1.3049,-1.3035,-1.3031,-1.3024,-1.3041,-1.3023,-1.3028,-1.3023,-1.3023,-1.3023,-1.3045,-1.3046,-1.3046,-1.3047,0,-1.315,-1.3141,-1.3139,-1.3133,-1.3131,-1.3126,-1.312,-1.3121,-1.3099,-1.3098,-1.3096,-1.3094,-1.3088,-1.3085,-1.3078,-1.3071,-1.3055,-1.3053,-1.3056,-1.3061,-1.3066,-1.3063,-1.3008,-1.3052,-1.3051,-1.3051,-1.3051,-1.305,-1.3185,-1.3189,-1.3178,-1.3176,-1.3169,-1.3163,-1.3165,-1.3153,-1.3151,-1.3145,-1.3134,-1.3134,-1.3123,-1.3113,-1.3107,-1.3106,-1.3097,-1.3101,-1.3102,-1.3103,-1.3105,-1.3067,-1.3105,-1.3105,-1.3104,-1.3104,-1.3104,0,-1.3229,-1.3221,-1.3219,-1.321,-1.3208,-1.3194,-1.3186,-1.3185,-1.3185,-1.3177,-1.3174,-1.3171,-1.3168,-1.3154,-1.3149,-1.3151,-1.3144,-1.315,-1.315,-1.3148,-1.3114,-1.3112,-1.3156,-1.3156,-1.3156,-1.3156,-1.3156,-1.3156,-1.3251,-1.3257,-1.3247,-1.3249,-1.3241,-1.324,-1.3237,-1.3231,-1.3224,-1.3223,-1.322,-1.321,-1.32,-1.3194,-1.319,-1.3186,-1.3185,-1.3194,-1.3187,-1.3156,-1.3151,-1.3146,-1.3144,-1.3194,-1.3194,-1.3221,-1.3221,-1.3222]},{"header":{"parameterUnit":"m.s-1","parameterCategory":1,"la1":30.2991,"la2":30.254,"lo1":-89.0895,"lo2":-89.0444,"dy":0.0017,"dx":0.0017,"nx":28,"ny":28,"refTime":"2025-03-24T09:00:00:Z","depth":0,"parameterNumber":3,"parameterNumberName":"V-component_of_WINDS"},"data":[0,0,0,0,0,0,0,0,0,0,0,0,0,0,0,0,0,0,0,0,0,0,0,0,0,0,0,0,0,0,0,0,0,0,0,0,0,0,0,0,0,0,0,0,0,0,0,0,0,0,0,0,0,0,0,0,0,0,0.7443,0.7443,0,0.7458,0.7458,0.7459,0.7479,0.748,0.748,0.748,0.7495,0.7495,0.7495,0,0,0,0,0,0,0,0,0,0,0,0,0,0.7431,0.7431,0.7443,0.7443,0.7443,0.7458,0.7458,0.7459,0.7479,0.748,0.748,0.7481,0.7495,0.7495,0.7495,0,0,0,0,0,0,0,0,0,0,0,0,0,0.744,0.7431,0.7443,0.7456,0.7457,0.7458,0.7459,0.7459,0.7479,0.748,0.748,0.7481,0.7495,0.7495,0.7495,0.7485,0,0,0.7495,0.7495,0,0,0,0,0,0,0,0,0.7439,0.744,0.7454,0.7455,0.7456,0.7468,0.7459,0.7467,0.7479,0.7471,0.748,0.7481,0.7485,0.7486,0.7488,0.7485,0.7486,0.7495,0.7495,0.7495,0.7495,0,0,0,0,0,0,0,0.7439,0.744,0.7449,0.7454,0.7455,0.746,0.7462,0.7461,0.7475,0.7471,0.7473,0.7475,0.7486,0.7488,0.7488,0.7486,0.7495,0.7495,0.7495,0.7495,0.7476,0.7475,0,0,0,0,0,0,0.7436,0.7439,0.7449,0.745,0.7449,0.746,0.7462,0.7463,0.7475,0.7477,0.7474,0.7476,0.7487,0.7488,0.7489,0.7477,0.7495,0.7495,0.7495,0.7476,0.7476,0.7475,0,0,0,0,0,0,0.7436,0.7437,0.7448,0.7445,0.7447,0.7459,0.7461,0.7463,0.7465,0.7477,0.7479,0.7473,0.7488,0.7489,0.7486,0.7478,0.7495,0.7495,0.7477,0.7476,0.7475,0.7454,0,0,0,0,0,0,0.7435,0.7437,0.7433,0.7445,0.7447,0.7445,0.746,0.7463,0.7465,0.7467,0.7477,0.7479,0.7488,0.7485,0.7486,0.7478,0.7495,0.7478,0.7477,0.7476,0.7455,0.7452,0.745,0,0,0,0,0,0.7435,0.7426,0.7433,0.7434,0.7443,0.7444,0.7445,0.7457,0.7465,0.7461,0.7469,0.7479,0.7479,0.7485,0.7485,0.7478,0.7478,0.7477,0.7476,0.7456,0.7453,0.745,0,0,0,0,0,0,0.7413,0.7428,0.7436,0.7431,0.7436,0.7448,0.7443,0.7453,0.7456,0.7457,0.7471,0.7473,0.7468,0.7473,0.7479,0.7468,0.748,0.7479,0.7465,0.7462,0.7459,0.7457,0.7495,0,0,0,0,0,0.7408,0.7409,0.7421,0.7416,0.7418,0.743,0.7431,0.744,0.7446,0.7448,0.7456,0.7461,0.7462,0.7462,0.7464,0.7456,0.7458,0.7451,0.7449,0.7446,0.7445,0.744,0.7437,0.7471,0.7471,0.7471,0,0,0.7397,0.7405,0.7405,0.7412,0.7417,0.7416,0.7432,0.7431,0.7431,0.7448,0.7445,0.7451,0.7457,0.7452,0.7449,0.7455,0.7436,0.7445,0.7443,0.7442,0.7438,0.7435,0.7432,0.747,0.747,0.747,0,0,0.7377,0.7383,0.7379,0.7384,0.7392,0.74,0.7399,0.7409,0.7414,0.7412,0.7424,0.7424,0.7426,0.743,0.7432,0.7413,0.7422,0.7413,0.7399,0.7394,0.7391,0.7389,0.7381,0.7378,0.7412,0.7412,0.7412,0,0.7362,0.7362,0.7375,0.7373,0.7376,0.7392,0.7387,0.7391,0.7399,0.74,0.7407,0.741,0.7415,0.741,0.7406,0.7407,0.7406,0.7412,0.7391,0.7389,0.7387,0.7379,0.7376,0.7411,0.7411,0.7411,0.7411,0,0.7343,0.7343,0.7338,0.7346,0.7348,0.7344,0.7357,0.7357,0.7365,0.7372,0.737,0.7377,0.738,0.738,0.7388,0.7376,0.7379,0.7388,0.74,0.7382,0.7375,0.7373,0.7409,0.741,0.741,0.741,0,0,0.7308,0.7323,0.7321,0.7324,0.7335,0.7335,0.7332,0.7336,0.7335,0.734,0.7338,0.7339,0.7348,0.735,0.7359,0.7355,0.7338,0.7364,0.7365,0.7358,0.7324,0.7316,0.7313,0.7345,0.7344,0.7344,0.7323,0,0.7288,0.7285,0.7297,0.729,0.7289,0.7305,0.7303,0.7308,0.7315,0.7315,0.7323,0.7323,0.7335,0.7336,0.7333,0.7341,0.7331,0.7343,0.7341,0.7341,0.7338,0.7309,0.7301,0.7281,0.7321,0.732,0.732,0,0.7265,0.7269,0.7262,0.7272,0.7272,0.727,0.7274,0.7275,0.7281,0.7286,0.7289,0.7299,0.7297,0.7309,0.7305,0.7313,0.7313,0.7317,0.7316,0.7315,0.7328,0.7306,0.7275,0.7271,0.7316,0.7316,0.7317,0,0.7239,0.7242,0.7239,0.7241,0.7253,0.7251,0.7256,0.7263,0.7264,0.7268,0.7269,0.7272,0.7273,0.7275,0.7286,0.7294,0.728,0.7293,0.7283,0.7283,0.7279,0.7279,0.7245,0.7281,0.7281,0.7281,0.7281,0,0.7215,0.7209,0.7227,0.7224,0.7219,0.7233,0.7227,0.7233,0.7239,0.7238,0.7252,0.725,0.7265,0.7264,0.7273,0.7268,0.7269,0.7272,0.7274,0.727,0.7269,0.7269,0.727,0.728,0.7281,0.7281,0.7281,0,0.7184,0.7196,0.7192,0.7204,0.7207,0.7202,0.7212,0.721,0.7218,0.7216,0.7216,0.7229,0.7229,0.724,0.7243,0.7248,0.7239,0.7245,0.7237,0.7238,0.7227,0.7227,0.7191,0.7187,0.7227,0.7226,0.7226,0,0.7167,0.7164,0.7175,0.7175,0.718,0.718,0.7181,0.7195,0.7196,0.7203,0.72,0.7201,0.7203,0.7203,0.7212,0.7213,0.7218,0.7205,0.7218,0.7214,0.7216,0.7216,0.7215,0.7202,0.7202,0.7201,0.7201,0,0.7136,0.7142,0.7144,0.7147,0.7149,0.7152,0.7156,0.7156,0.7171,0.7171,0.7171,0.7173,0.7176,0.7177,0.718,0.7185,0.7195,0.7197,0.7195,0.719,0.7185,0.7186,0.7228,0.7197,0.7198,0.7198,0.7198,0.7198,0.7111,0.7108,0.7115,0.7117,0.7122,0.7125,0.7124,0.7132,0.7133,0.7136,0.7144,0.7143,0.715,0.7156,0.7159,0.7158,0.7165,0.7161,0.716,0.7159,0.7156,0.7186,0.7159,0.7159,0.716,0.716,0.716,0,0.7079,0.7085,0.7086,0.7091,0.7092,0.7103,0.7108,0.7108,0.7107,0.7113,0.7114,0.7115,0.7116,0.7125,0.7127,0.7124,0.7129,0.7124,0.7124,0.7124,0.7151,0.7152,0.712,0.712,0.712,0.712,0.712,0.712,0.7062,0.7058,0.7065,0.7063,0.7068,0.7068,0.707,0.7073,0.7077,0.7077,0.7078,0.7085,0.7091,0.7094,0.7095,0.7098,0.7097,0.7091,0.7094,0.7119,0.7123,0.7126,0.7127,0.7091,0.7091,0.7068,0.7068,0.7067]}]]